Location: Downe
(51.3167°N, 0.0500°E)
Time: 21:17:42
(UTC+00:00)

FALCON 9 DEB - Pass Details

Date: 17 November 2019
Orbit: 431 x 444 km, 53.0° (Epoch: 10 December)

Event Time Altitude Azimuth Distance (km) Brightness Sun altitude
Exits shadow 06:11:41 16° 284° (WNW) 1,208 4.7 -10.6°
Maximum altitude 06:14:17 65° 5° (N) 479 3.2 -10.2°
Drops below altitude 10° 06:17:42 10° 88° (E) 1,534 7.2 -9.7°
Sets 06:19:50 0° 91° (E) 2,401 8.6 -9.4°
